Home > Weather > Sherbrooke > Past weeks

Flag for Canada Past Weather in Sherbrooke, Quebec, Canada — Yesterday and Last 2 Weeks

Now
77 °F

Partly sunny.


Feels Like: 79 °F
Forecast: 64 / 82 °F
Wind: 13 mph from Southwest

Location: Sherbrooke

Current Time: Jun 27, 2016 at 12:51:53 PM

Latest Report: Jun 27, 2016 at 12:00 PM


Visibility: 9 mi

Pressure: 29.89 "Hg

Humidity: 61%

Dew Point: 63 °F

Location of SherbrookeLocation

Past Weather in Sherbrooke — Graph

°F

Sherbrooke Temperature Yesterday

Maximum temperature yesterday: 86 °F (at 2:00 PM)
Minimum temperature yesterday: 52 °F (at 4:00 AM)
Average temperature yesterday: 72 °F

High & Low Weather Summary for the Past Weeks

 TemperatureHumidityPressure
High88 °F (Jun 20, 4:00 PM)100% (Jun 12, 9:00 PM)30.24 "Hg (Jun 12, 9:00 PM)
Low41 °F (Jun 24, 5:00 AM)28% (Jun 17, 3:00 PM)29.59 "Hg (Jun 12, 12:00 PM)
Average62 °F69%29.93 "Hg
* Reported Jun 12 11:00 AM — Jun 27 11:00 AM, Sherbrooke, Weather by CustomWeather, © 2016

Note: Actual official high and low records may vary slightly from our data, if they occured in-between our weather recording intervals... More about our weather records

Advertising

Sherbrooke Weather History for the Previous 24 Hours

Scroll right to see more
 ConditionsComfort  
Time TempWeatherWind HumidityBarometerVisibility
11:00 AM
Mon, Jun 27
75 °FPartly sunny.8 mph65%29.91 "Hg9 mi
10:00 AM75 °FScattered clouds.6 mph65%29.92 "Hg9 mi
9:00 AM75 °FSunny.10 mph61%29.94 "Hg9 mi
8:00 AM73 °FScattered clouds.5 mph69%29.95 "Hg9 mi
7:00 AM72 °FSunny.5 mph69%29.95 "Hg9 mi
6:00 AM63 °FPassing clouds.No wind88%29.96 "Hg9 mi
5:00 AM63 °FOvercast.2 mph88%29.96 "Hg9 mi
4:00 AM64 °FPassing clouds.3 mph83%29.96 "Hg9 mi
3:00 AM70 °FClear.5 mph69%29.97 "Hg9 mi
2:00 AM70 °FPassing clouds.5 mph69%29.99 "Hg9 mi
1:00 AM64 °FPassing clouds.2 mph83%30.00 "Hg9 mi
12:00 AM66 °FPassing clouds.No wind78%30.00 "Hg9 mi
11:00 PM
Sun, Jun 26
72 °FPassing clouds.3 mph65%30.01 "Hg9 mi
10:00 PM73 °FClear.6 mph61%30.00 "Hg9 mi
9:00 PM75 °FSunny.6 mph61%30.01 "Hg9 mi
8:00 PM81 °FSunny.3 mph51%30.02 "Hg9 mi
7:00 PM82 °FPassing clouds.5 mph45%30.03 "Hg9 mi
6:00 PM86 °FPartly sunny.9 mph35%30.04 "Hg9 mi
5:00 PM86 °FScattered clouds.13 mph35%30.06 "Hg9 mi
4:00 PM86 °FScattered clouds.8 mph35%30.08 "Hg9 mi
3:00 PM86 °FSunny.12 mph38%30.09 "Hg9 mi
2:00 PM86 °FSunny.8 mph35%30.11 "Hg9 mi
1:00 PM84 °FSunny.9 mph35%30.13 "Hg9 mi
12:00 PM82 °FSunny.10 mph40%30.14 "Hg9 mi
Weather by CustomWeather, © 2016

See weather overviewHow to use our weather pages